QPF
0.08 0.08 0.07 0.06 0.05 0.05 0.05 0.05 0.05 0.04 0.02 0.01 0.01 0.00 0.00 0.00 0.00 0.00 0.00 0.00 0.00 0.00 0.00 0.00 0.00 0.00 0.00 0.00 0.00 0.01 0.01 0.01 0.01 0.02 0.03 0.05 0.06 0.09
0.10 0.10 0.08 0.07 0.06 0.05 0.05 0.04 0.04 0.03 0.02 0.01 0.01 0.01 0.01 0.00 0.00 0.00 0.00 0.00 0.00 0.00 0.00 0.00 0.00 0.00 0.00 0.00 0.00 0.01 0.01 0.01 0.01 0.01 0.02 0.04 0.06 0.09
0.09 0.09 0.08 0.08 0.07 0.05 0.04 0.03 0.02 0.02 0.01 0.01 0.01 0.00 0.01 0.01 0.01 0.00 0.00 0.00 0.00 0.00 0.00 0.00 0.00 0.00 0.00 0.00 0.01 0.01 0.01 0.01 0.01 0.01 0.02 0.03 0.05 0.06
0.09 0.09 0.07 0.06 0.06 0.05 0.04 0.03 0.03 0.02 0.02 0.01 0.01 0.01 0.01 0.00 0.00 0.00 0.00 0.00 0.00 0.00 0.00 0.00 0.00 0.00 0.00 0.00 0.02 0.02 0.02 0.01 0.01 0.01 0.01 0.02 0.03 0.06
0.10 0.10 0.09 0.08 0.07 0.05 0.05 0.04 0.03 0.03 0.02 0.02 0.01 0.01 0.01 0.01 0.01 0.01 0.00 0.00 0.00 0.00 0.01 0.00 0.00 0.00 0.00 0.01 0.02 0.02 0.02 0.02 0.02 0.01 0.01 0.02 0.03 0.05
0.08 0.07 0.07 0.07 0.06 0.06 0.06 0.05 0.04 0.04 0.03 0.03 0.02 0.02 0.02 0.02 0.01 0.01 0.01 0.00 0.00 0.00 0.00 0.00 0.00 0.00 0.00 0.00 0.01 0.01 0.02 0.03 0.03 0.02 0.01 0.02 0.03 0.04
0.06 0.05 0.04 0.04 0.04 0.04 0.04 0.03 0.03 0.03 0.03 0.02 0.02 0.01 0.01 0.01 0.01 0.01 0.00 0.00 0.00 0.00 0.00 0.00 0.00 0.00 0.00 0.00 0.01 0.01 0.01 0.01 0.02 0.02 0.01 0.01 0.03 0.04
0.05 0.04 0.03 0.03 0.03 0.03 0.03 0.03 0.03 0.02 0.02 0.02 0.01 0.01 0.01 0.01 0.01 0.01 0.00 0.00 0.00 0.00 0.00 0.00 0.00 0.00 0.00 0.00 0.00 0.00 0.00 0.00 0.01 0.01 0.01 0.01 0.02 0.04
0.03 0.03 0.03 0.02 0.02 0.02 0.02 0.02 0.03 0.03 0.03 0.02 0.01 0.01 0.01 0.01 0.01 0.01 0.01 0.00 0.00 0.00 0.00 0.00 0.00 0.00 0.00 0.00 0.00 0.00 0.00 0.00 0.00 0.01 0.01 0.01 0.02 0.03
0.02 0.01 0.01 0.01 0.01 0.01 0.01 0.01 0.01 0.02 0.02 0.02 0.01 0.01 0.01 0.01 0.01 0.01 0.01 0.00 0.00 0.00 0.00 0.00 0.00 0.00 0.00 0.00 0.00 0.00 0.00 0.00 0.00 0.01 0.01 0.01 0.01 0.02
0.03 0.02 0.01 0.01 0.01 0.02 0.02 0.01 0.01 0.01 0.01 0.01 0.01 0.01 0.01 0.01 0.01 0.01 0.00 0.00 0.00 0.00 0.00 0.00 0.00 0.00 0.00 0.00 0.00 0.00 0.00 0.00 0.00 0.00 0.01 0.01 0.01 0.02
0.03 0.03 0.02 0.02 0.02 0.03 0.02 0.02 0.02 0.01 0.01 0.02 0.01 0.01 0.01 0.01 0.01 0.01 0.00 0.00 0.00 0.00 0.00 0.00 0.00 0.00 0.00 0.00 0.00 0.00 0.00 0.00 0.00 0.00 0.01 0.01 0.01 0.02
0.03 0.02 0.02 0.04 0.04 0.05 0.05 0.03 0.03 0.03 0.03 0.03 0.02 0.02 0.01 0.01 0.01 0.01 0.01 0.01 0.00 0.00 0.00 0.00 0.00 0.00 0.00 0.00 0.00 0.00 0.00 0.00 0.00 0.00 0.01 0.01 0.01 0.01
0.04 0.03 0.03 0.04 0.05 0.06 0.07 0.06 0.06 0.05 0.04 0.03 0.03 0.02 0.01 0.01 0.01 0.01 0.01 0.01 0.00 0.00 0.00 0.00 0.00 0.00 0.00 0.00 0.00 0.00 0.00 0.00 0.00 0.00 0.00 0.01 0.01 0.01
0.06 0.05 0.05 0.06 0.07 0.08 0.08 0.07 0.07 0.06 0.04 0.03 0.02 0.02 0.02 0.02 0.01 0.01 0.01 0.01 0.00 0.00 0.00 0.00 0.00 0.00 0.00 0.00 0.00 0.00 0.00 0.00 0.00 0.00 0.00 0.00 0.01 0.01
0.08 0.08 0.08 0.08 0.08 0.08 0.08 0.08 0.07 0.05 0.04 0.03 0.03 0.03 0.03 0.03 0.02 0.01 0.01 0.00 0.00 0.00 0.00 0.00 0.00 0.00 0.00 0.00 0.00 0.00 0.00 0.00 0.00 0.00 0.00 0.00 0.01 0.01
0.10 0.10 0.10 0.10 0.10 0.08 0.07 0.06 0.06 0.05 0.05 0.04 0.04 0.04 0.04 0.03 0.02 0.01 0.01 0.00 0.00 0.00 0.00 0.00 0.00 0.00 0.00 0.00 0.00 0.00 0.00 0.00 0.00 0.00 0.00 0.00 0.00 0.00
0.14 0.12 0.10 0.09 0.09 0.08 0.07 0.07 0.07 0.06 0.05 0.05 0.05 0.04 0.04 0.03 0.03 0.02 0.01 0.00 0.00 0.00 0.00 0.00 0.00 0.00 0.00 0.00 0.00 0.00 0.00 0.00 0.00 0.00 0.00 0.00 0.00 0.00
0.14 0.11 0.08 0.07 0.07 0.08 0.08 0.08 0.08 0.07 0.07 0.07 0.06 0.05 0.04 0.03 0.03 0.02 0.01 0.01 0.00 0.00 0.00 0.00 0.00 0.00 0.00 0.00 0.00 0.00 0.00 0.00 0.00 0.00 0.00 0.00 0.00 0.00
0.10 0.08 0.07 0.06 0.07 0.08 0.09 0.09 0.09 0.10 0.10 0.09 0.07 0.06 0.05 0.04 0.03 0.02 0.01 0.01 0.00 0.00 0.00 0.00 0.00 0.00 0.00 0.00 0.00 0.00 0.00 0.00 0.00 0.00 0.00 0.00 0.00 0.00
0.06 0.06 0.07 0.08 0.08 0.09 0.09 0.10 0.11 0.12 0.10 0.08 0.07 0.05 0.04 0.04 0.03 0.02 0.02 0.01 0.01 0.00 0.00 0.00 0.00 0.00 0.00 0.00 0.00 0.00 0.00 0.00 0.00 0.00 0.00 0.00 0.00 0.00
0.06 0.07 0.09 0.10 0.11 0.11 0.12 0.12 0.12 0.12 0.10 0.09 0.07 0.05 0.04 0.03 0.03 0.02 0.02 0.02 0.01 0.01 0.01 0.01 0.01 0.01 0.01 0.00 0.00 0.00 0.00 0.00 0.00 0.00 0.00 0.00 0.00 0.00
0.07 0.08 0.09 0.10 0.11 0.12 0.13 0.12 0.11 0.10 0.09 0.08 0.07 0.06 0.05 0.04 0.03 0.03 0.03 0.02 0.02 0.02 0.01 0.02 0.02 0.01 0.01 0.01 0.00 0.00 0.00 0.00 0.00 0.00 0.00 0.00 0.00 0.00
MSLP
1013.61 1013.78 1013.98 1014.23 1014.52 1014.86 1015.26 1015.71 1016.20 1016.71 1017.22 1017.71 1018.16 1018.53 1018.80 1018.98 1019.05 1019.04 1018.95 1018.82 1018.68 1018.57 1018.50 1018.49 1018.56 1018.68 1018.85 1019.05 1019.24 1019.39 1019.47 1019.46 1019.33 1019.09 1018.73 1018.26 1017.71 1017.12
1012.95 1013.06 1013.21 1013.41 1013.68 1014.03 1014.46 1014.96 1015.51 1016.11 1016.72 1017.31 1017.85 1018.31 1018.66 1018.91 1019.04 1019.09 1019.05 1018.98 1018.89 1018.82 1018.79 1018.80 1018.87 1018.99 1019.14 1019.30 1019.45 1019.56 1019.61 1019.57 1019.42 1019.16 1018.78 1018.28 1017.70 1017.06
1012.37 1012.42 1012.52 1012.69 1012.94 1013.28 1013.73 1014.27 1014.88 1015.56 1016.25 1016.93 1017.56 1018.10 1018.53 1018.85 1019.06 1019.18 1019.21 1019.20 1019.17 1019.14 1019.14 1019.16 1019.22 1019.31 1019.42 1019.53 1019.62 1019.68 1019.68 1019.60 1019.44 1019.17 1018.79 1018.29 1017.69 1017.02
1011.87 1011.89 1011.95 1012.09 1012.32 1012.66 1013.11 1013.67 1014.33 1015.05 1015.80 1016.54 1017.24 1017.85 1018.36 1018.75 1019.04 1019.22 1019.33 1019.39 1019.42 1019.44 1019.46 1019.49 1019.53 1019.59 1019.64 1019.68 1019.71 1019.72 1019.67 1019.58 1019.41 1019.15 1018.78 1018.30 1017.71 1017.02
1011.48 1011.48 1011.52 1011.64 1011.85 1012.17 1012.62 1013.18 1013.85 1014.59 1015.36 1016.13 1016.87 1017.52 1018.08 1018.53 1018.88 1019.14 1019.33 1019.46 1019.56 1019.63 1019.68 1019.73 1019.76 1019.78 1019.78 1019.77 1019.74 1019.69 1019.62 1019.51 1019.34 1019.11 1018.77 1018.32 1017.75 1017.07
1011.19 1011.18 1011.22 1011.33 1011.52 1011.83 1012.25 1012.80 1013.44 1014.16 1014.92 1015.69 1016.42 1017.08 1017.66 1018.15 1018.56 1018.88 1019.14 1019.35 1019.52 1019.65 1019.76 1019.83 1019.86 1019.86 1019.83 1019.78 1019.71 1019.63 1019.54 1019.43 1019.28 1019.07 1018.78 1018.38 1017.85 1017.19
1010.97 1010.97 1011.01 1011.12 1011.30 1011.59 1011.99 1012.50 1013.10 1013.77 1014.49 1015.21 1015.90 1016.54 1017.12 1017.63 1018.06 1018.44 1018.77 1019.06 1019.30 1019.51 1019.67 1019.79 1019.85 1019.86 1019.82 1019.75 1019.66 1019.56 1019.46 1019.36 1019.24 1019.07 1018.83 1018.48 1017.99 1017.36
1010.79 1010.80 1010.85 1010.96 1011.14 1011.42 1011.79 1012.26 1012.81 1013.42 1014.07 1014.72 1015.36 1015.95 1016.50 1017.00 1017.46 1017.88 1018.26 1018.62 1018.95 1019.23 1019.47 1019.64 1019.75 1019.79 1019.77 1019.70 1019.61 1019.51 1019.42 1019.33 1019.23 1019.11 1018.91 1018.61 1018.18 1017.59
1010.60 1010.62 1010.68 1010.80 1010.98 1011.25 1011.60 1012.04 1012.54 1013.09 1013.67 1014.26 1014.83 1015.37 1015.88 1016.37 1016.83 1017.27 1017.71 1018.12 1018.52 1018.89 1019.20 1019.44 1019.60 1019.69 1019.70 1019.66 1019.58 1019.50 1019.41 1019.34 1019.27 1019.17 1019.02 1018.77 1018.38 1017.85
1010.35 1010.37 1010.43 1010.55 1010.75 1011.02 1011.37 1011.79 1012.27 1012.79 1013.32 1013.86 1014.38 1014.87 1015.35 1015.81 1016.27 1016.73 1017.20 1017.66 1018.12 1018.54 1018.92 1019.22 1019.45 1019.58 1019.64 1019.63 1019.58 1019.51 1019.45 1019.39 1019.33 1019.26 1019.14 1018.93 1018.60 1018.13
1010.02 1010.01 1010.06 1010.19 1010.39 1010.68 1011.05 1011.48 1011.96 1012.48 1013.00 1013.52 1014.02 1014.49 1014.95 1015.41 1015.86 1016.33 1016.81 1017.30 1017.79 1018.25 1018.67 1019.03 1019.30 1019.49 1019.59 1019.61 1019.59 1019.54 1019.49 1019.45 1019.40 1019.35 1019.26 1019.09 1018.82 1018.42
1009.59 1009.54 1009.56 1009.68 1009.89 1010.21 1010.60 1011.07 1011.58 1012.13 1012.68 1013.22 1013.74 1014.23 1014.70 1015.15 1015.61 1016.08 1016.56 1017.06 1017.56 1018.04 1018.48 1018.86 1019.17 1019.39 1019.52 1019.58 1019.59 1019.56 1019.53 1019.49 1019.46 1019.42 1019.36 1019.24 1019.03 1018.72
1009.10 1008.98 1008.96 1009.05 1009.26 1009.59 1010.01 1010.53 1011.09 1011.70 1012.31 1012.92 1013.49 1014.03 1014.54 1015.02 1015.49 1015.97 1016.45 1016.93 1017.41 1017.88 1018.32 1018.71 1019.02 1019.26 1019.42 1019.51 1019.55 1019.55 1019.53 1019.51 1019.49 1019.47 1019.43 1019.35 1019.21 1019.00
1008.60 1008.40 1008.31 1008.35 1008.54 1008.86 1009.31 1009.86 1010.49 1011.17 1011.86 1012.55 1013.21 1013.82 1014.40 1014.93 1015.43 1015.91 1016.38 1016.85 1017.30 1017.74 1018.16 1018.52 1018.84 1019.08 1019.26 1019.38 1019.44 1019.47 1019.48 1019.48 1019.48 1019.48 1019.47 1019.44 1019.36 1019.23
1008.16 1007.86 1007.68 1007.66 1007.78 1008.08 1008.52 1009.09 1009.77 1010.51 1011.29 1012.07 1012.83 1013.54 1014.19 1014.79 1015.33 1015.83 1016.30 1016.74 1017.16 1017.57 1017.94 1018.29 1018.59 1018.84 1019.03 1019.18 1019.28 1019.34 1019.38 1019.41 1019.44 1019.46 1019.47 1019.47 1019.45 1019.40
1007.84 1007.44 1007.16 1007.04 1007.09 1007.31 1007.71 1008.27 1008.96 1009.75 1010.59 1011.46 1012.31 1013.11 1013.85 1014.52 1015.12 1015.65 1016.12 1016.55 1016.94 1017.31 1017.66 1017.98 1018.26 1018.52 1018.74 1018.92 1019.05 1019.16 1019.24 1019.30 1019.35 1019.40 1019.43 1019.46 1019.47 1019.47
1007.68 1007.18 1006.80 1006.56 1006.50 1006.63 1006.95 1007.46 1008.12 1008.91 1009.79 1010.71 1011.63 1012.52 1013.34 1014.08 1014.74 1015.31 1015.80 1016.23 1016.61 1016.96 1017.28 1017.58 1017.87 1018.14 1018.39 1018.60 1018.79 1018.95 1019.07 1019.17 1019.24 1019.30 1019.34 1019.38 1019.40 1019.43
1007.66 1007.09 1006.60 1006.25 1006.07 1006.08 1006.29 1006.70 1007.30 1008.05 1008.92 1009.86 1010.83 1011.78 1012.67 1013.47 1014.19 1014.80 1015.32 1015.77 1016.16 1016.50 1016.82 1017.13 1017.43 1017.73 1018.01 1018.27 1018.51 1018.72 1018.89 1019.02 1019.12 1019.18 1019.22 1019.24 1019.25 1019.26
1007.73 1007.11 1006.54 1006.09 1005.78 1005.66 1005.74 1006.04 1006.54 1007.22 1008.04 1008.97 1009.95 1010.93 1011.87 1012.73 1013.50 1014.16 1014.72 1015.20 1015.61 1015.97 1016.31 1016.64 1016.97 1017.30 1017.62 1017.94 1018.23 1018.49 1018.70 1018.86 1018.97 1019.04 1019.06 1019.05 1019.04 1019.01
1007.81 1007.16 1006.54 1006.00 1005.59 1005.35 1005.30 1005.48 1005.86 1006.45 1007.21 1008.10 1009.06 1010.05 1011.01 1011.91 1012.72 1013.43 1014.04 1014.56 1015.00 1015.40 1015.77 1016.13 1016.49 1016.87 1017.24 1017.60 1017.95 1018.25 1018.50 1018.69 1018.81 1018.87 1018.88 1018.85 1018.79 1018.73
1007.80 1007.15 1006.51 1005.92 1005.43 1005.09 1004.94 1005.00 1005.28 1005.77 1006.45 1007.28 1008.21 1009.18 1010.15 1011.08 1011.92 1012.67 1013.32 1013.89 1014.37 1014.80 1015.21 1015.61 1016.02 1016.43 1016.85 1017.26 1017.65 1017.99 1018.28 1018.50 1018.64 1018.70 1018.70 1018.65 1018.56 1018.47
1007.63 1007.01 1006.37 1005.76 1005.23 1004.83 1004.60 1004.57 1004.76 1005.17 1005.77 1006.54 1007.42 1008.37 1009.33 1010.26 1011.13 1011.91 1012.60 1013.20 1013.73 1014.21 1014.66 1015.09 1015.54 1015.99 1016.45 1016.90 1017.32 1017.70 1018.02 1018.27 1018.43 1018.51 1018.52 1018.47 1018.38 1018.27
1007.28 1006.70 1006.09 1005.49 1004.95 1004.52 1004.25 1004.16 1004.29 1004.63 1005.16 1005.87 1006.70 1007.62 1008.57 1009.49 1010.37 1011.17 1011.89 1012.53 1013.09 1013.60 1014.09 1014.56 1015.03 1015.52 1016.01 1016.48 1016.94 1017.36 1017.72 1018.00 1018.20 1018.31 1018.35 1018.32 1018.26 1018.17
Thickness
5610 5609 5607 5606 5606 5605 5603 5601 5595 5589 5587 5584 5580 5578 5575 5573 5571 5570 5568 5565 5563 5561 5558 5555 5552 5549 5547 5545 5542 5539 5537 5534 5533 5532 5532 5532 5531 5532
5603 5601 5599 5598 5596 5595 5594 5592 5589 5586 5581 5577 5572 5568 5565 5562 5561 5559 5558 5555 5553 5550 5547 5545 5541 5538 5536 5534 5531 5529 5527 5525 5524 5523 5523 5523 5524 5525
5593 5593 5591 5589 5587 5585 5583 5582 5579 5576 5572 5566 5562 5559 5555 5552 5550 5548 5546 5545 5542 5540 5537 5534 5531 5528 5525 5523 5521 5519 5517 5515 5514 5514 5514 5515 5515 5517
5585 5583 5582 5579 5577 5576 5573 5571 5568 5565 5562 5557 5550 5547 5545 5542 5540 5537 5535 5533 5531 5528 5525 5523 5520 5517 5515 5513 5510 5509 5507 5505 5504 5504 5505 5506 5508 5509
5575 5574 5573 5569 5567 5565 5563 5560 5557 5554 5551 5547 5541 5536 5533 5531 5527 5524 5523 5521 5519 5517 5514 5512 5509 5507 5504 5502 5500 5499 5497 5496 5496 5496 5496 5497 5499 5501
5564 5564 5562 5559 5557 5554 5552 5549 5546 5542 5539 5535 5530 5526 5523 5520 5517 5514 5511 5509 5508 5506 5503 5501 5499 5497 5495 5492 5490 5489 5487 5486 5486 5487 5487 5488 5489 5491
5551 5551 5551 5549 5546 5543 5540 5537 5534 5530 5527 5524 5520 5516 5513 5509 5508 5505 5502 5498 5496 5494 5492 5490 5488 5487 5485 5482 5480 5479 5478 5477 5477 5478 5478 5479 5481 5483
5537 5536 5535 5533 5531 5530 5528 5525 5523 5520 5517 5514 5511 5508 5505 5502 5498 5494 5490 5487 5485 5484 5482 5480 5478 5476 5475 5472 5471 5470 5469 5468 5468 5468 5469 5470 5472 5474
5521 5519 5518 5516 5515 5513 5513 5511 5510 5509 5508 5505 5501 5500 5496 5494 5489 5484 5481 5479 5477 5475 5471 5469 5468 5467 5465 5463 5461 5460 5460 5459 5459 5460 5460 5461 5463 5465
5504 5502 5501 5500 5498 5497 5495 5494 5493 5494 5494 5492 5491 5489 5487 5484 5481 5479 5475 5468 5465 5463 5462 5459 5457 5457 5455 5454 5453 5452 5451 5451 5451 5451 5452 5452 5453 5455
5485 5484 5483 5482 5483 5481 5479 5477 5476 5477 5477 5477 5476 5475 5474 5472 5470 5465 5461 5457 5455 5452 5451 5451 5448 5446 5445 5444 5444 5443 5443 5442 5442 5442 5442 5443 5444 5445
5465 5465 5465 5464 5465 5464 5462 5462 5461 5461 5460 5461 5460 5460 5460 5459 5459 5457 5454 5449 5446 5444 5442 5441 5438 5436 5434 5434 5434 5434 5434 5434 5433 5433 5434 5434 5435 5436
5447 5447 5447 5447 5448 5448 5448 5448 5449 5447 5445 5445 5444 5443 5444 5444 5444 5444 5444 5442 5438 5437 5436 5433 5429 5427 5425 5424 5424 5424 5424 5424 5424 5425 5425 5426 5426 5427
5427 5428 5428 5429 5430 5431 5433 5434 5434 5433 5430 5430 5430 5430 5430 5430 5431 5431 5431 5430 5430 5429 5428 5426 5422 5419 5416 5414 5415 5415 5415 5415 5415 5416 5416 5417 5417 5418
5407 5408 5410 5412 5413 5415 5417 5419 5420 5419 5418 5418 5419 5419 5419 5418 5417 5417 5416 5416 5416 5416 5416 5416 5415 5412 5409 5407 5406 5406 5406 5406 5407 5407 5407 5408 5408 5409
5386 5389 5391 5394 5396 5399 5402 5404 5405 5406 5408 5409 5409 5407 5406 5405 5405 5405 5404 5404 5403 5402 5402 5403 5404 5403 5400 5399 5398 5397 5397 5398 5399 5399 5399 5400 5400 5401
5367 5370 5372 5376 5379 5382 5385 5388 5390 5393 5396 5396 5396 5395 5395 5395 5394 5393 5393 5392 5392 5392 5391 5391 5392 5392 5392 5392 5390 5390 5390 5390 5391 5391 5391 5391 5393 5395
5350 5354 5358 5361 5364 5368 5372 5375 5378 5381 5385 5385 5385 5386 5386 5386 5385 5384 5383 5383 5383 5383 5382 5381 5381 5380 5380 5382 5385 5384 5383 5383 5383 5384 5384 5383 5385 5388
5335 5340 5345 5348 5352 5356 5360 5363 5368 5371 5374 5376 5377 5377 5377 5377 5377 5376 5375 5375 5375 5375 5373 5372 5372 5372 5372 5375 5379 5379 5378 5377 5376 5376 5377 5377 5378 5381
5322 5327 5332 5336 5340 5344 5349 5353 5357 5361 5364 5367 5368 5369 5369 5368 5368 5369 5369 5368 5368 5367 5365 5364 5365 5366 5368 5368 5370 5371 5372 5371 5370 5369 5369 5370 5371 5374
5308 5314 5319 5324 5329 5333 5338 5343 5348 5353 5356 5359 5361 5362 5362 5362 5362 5363 5363 5363 5362 5361 5361 5361 5361 5361 5360 5360 5360 5362 5363 5364 5365 5363 5362 5362 5363 5365
5296 5302 5308 5313 5318 5324 5329 5334 5339 5345 5349 5353 5355 5356 5356 5356 5357 5357 5357 5357 5357 5356 5356 5355 5354 5352 5351 5353 5354 5354 5353 5355 5356 5357 5357 5358 5357 5357
5285 5291 5298 5304 5309 5315 5321 5326 5332 5338 5343 5346 5349 5350 5351 5351 5352 5352 5352 5351 5351 5350 5349 5347 5346 5345 5346 5346 5345 5345 5345 5346 5347 5348 5349 5351 5352 5353